[Iaude] MPEC Y66: 2023 LS1 [a=1.74,e=0.34,i=6.0,H=20.84]

mpec at marsden.cfa.harvard.edu mpec at marsden.cfa.harvard.edu
Wed Dec 20 09:11:17 EST 2023


M.P.E.C. 2023-Y66                             Issued 2023 December 20, 14:09 UT

     The Minor Planet Electronic Circulars contain information on unusual
         minor planets, routine data on comets and natural satellites,
         and occasional editorial announcements.  They are published
    on behalf of Division F of the International Astronomical Union by the
          Minor Planet Center, Smithsonian Astrophysical Observatory,
                          Cambridge, MA 02138, U.S.A.
			  
             Prepared using the Tamkin Foundation Computer Network

                              MPC at CFA.HARVARD.EDU
            URL https://www.minorplanetcenter.net/    ISSN 1523-6714

                                    2023 LS1                                    


                           Revision to MPEC 2023-M05                            

Additional Observations:
     K23L01S  C2000 09 27.27610022 39 38.599+14 00 38.48         20.32VeEY066645
     K23L01S  C2000 09 27.27957222 39 38.634+14 00 36.03         21.16 eEY066645
     K23L01S 5C2016 03 31.39124 13 03 54.30 -23 33 07.5          22.2   EY066W84
     K23L01S 5C2016 03 31.39439 13 03 54.07 -23 33 07.4                 EY066W84
     K23L01S 5C2016 03 31.39756 13 03 53.81 -23 33 07.3                 EY066W84
     K23L01S 5C2016 03 31.40075 13 03 53.56 -23 33 07.3                 EY066W84
     K23L01S 5C2016 03 31.40394 13 03 53.32 -23 33 07.2                 EY066W84

Observer details:
645 Apache Point-Sloan Digital Sky Survey.  Observer SDSS Collaboration.
    Measurers Z. Ivezic, M. Juric, R. H. Lupton, S. Tabachnik, T. Quinn.
    2.50-m reflector + CCD.
W84 Cerro Tololo-DECam.  Observers L. Allen, D. Trilling, D. James, D.
    Herrera, C. Fuentes, J. Rajagopal, T. Axelrod.  Measurer F. Valdes.  4.0-m
    CTIO reflector + DECam.

First and last observations above in comparison with prediction:
Residuals in seconds of arc (or two decimals in degrees), reference and Delta-T
000927 645 0.19+ 0.09+    160331 W84 0.03+ 0.01+    MPO782815   +0.00 days

Orbital elements:
2023 LS1                                                 Earth MOID = 0.1360 AU
Epoch 2023 Sept. 13.0 TT = JDT 2460200.5                Veres                   
M  28.11610              (2000.0)            P               Q                  
n   0.42860974     Peri.    9.60514     +0.38712973     +0.91635116             
a   1.7421867      Node   283.22659     -0.85275263     +0.31371660             
e   0.3388093      Incl.    6.02233     -0.35063303     +0.24876185             
P   2.30           H   20.84          G   0.15           U   0                  
Residuals in seconds of arc
000927 645  0.0   0.0     230709 H21  0.1+  0.0     230811 K87  0.0   0.3+
000927 645  0.0   0.0     230709 H21  0.3+  0.0     230812 X06  0.0   0.1+
160331 W84  0.1+  0.1+    230709 H21  0.1+  0.0     230812 X06  0.0   0.1-
160331 W84  0.3+  0.1+    230709 H21  0.0   0.1+    230812 X06  0.3+  0.0
160331 W84  0.1+  0.2+    230710 K19  0.2-  0.3-    230813 M22  0.3+  0.3+
160331 W84  0.1+  0.1+    230710 K19  0.1+  0.6+    230813 M22  0.1-  0.2-
160331 W84  0.2+  0.2+    230710 K19  0.6-  1.1+    230813 M22  0.3-  0.1+
230614 G96  0.0   0.1+    230710 G96  0.2-  0.2-    230813 M22  0.1+  0.4+
230614 G96  0.2-  0.1-    230710 G96  0.0   0.0     230813 X06  0.0   0.9-
230614 G96  0.1+  0.0     230710 G96  0.0   0.0     230813 X06  0.3+  0.1-
230614 G96  0.0   0.1-    230710 G96  0.1-  0.1+    230813 X06  0.6+  0.2-
230614 H01  0.0   0.1+    230711 H21  0.1-  0.0     230814 U52  0.1+  0.1+
230614 H01  0.0   0.1+    230711 H21  0.2-  0.0     230814 U52  0.3-  0.2-
230614 H01  0.1+  0.0     230711 H21  0.2-  0.1+    230816 M45  0.1-  0.1+
230614 H01  0.1-  0.1+    230711 H21  0.2-  0.0     230816 M45  0.1+  0.0
230614 I52  0.2-  0.1-    230713 W68  0.4+  0.2+    230816 M45  0.2+  0.1-
230614 I52  0.2-  0.1-    230713 W68  0.3-  0.8+    230817 M49  0.1+  0.2-
230614 I52  0.1-  0.1+    230713 W68  0.8-  0.7-    230817 M49  0.1-  0.2-
230614 I52  0.1-  0.0     230713 W68  0.3+  0.4-    230817 M49  0.0   0.1+
230614 474  0.1-  0.0     230715 K74  0.1+  0.5+    230818 B72  0.0   0.0
230614 474  0.1-  0.3-    230715 K74  0.2+  0.1+    230818 B72  0.2-  0.1-
230614 474  0.4-  0.2+    230715 K74  0.0   0.1+    230818 B72  0.0   0.0
230614 474  0.2-  0.2-    230715 K74  0.1-  0.5+    230819 Z43  0.2-  0.2-
230614 L81  0.0   0.2-    230715 K74  0.0   0.0     230819 Z43  0.4-  0.0
230614 L81  0.2-  0.2-    230715 K74  0.3-  0.2-    230819 Z43  0.1-  0.2-
230615 M21  0.1-  0.1+    230715 K74  0.2+  0.1+    230820 Z43  0.0   0.1-
230615 M21  0.2-  0.3+    230715 K74  0.1+  0.0     230821 196  0.3-  0.3-
230615 M21  0.1+  0.2+    230715 K74  0.1-  0.1+    230821 196  0.3+  0.3+
230615 M49  0.2-  0.3+    230716 H21  1.0+  0.1+    230821 196  0.2+  0.3-
230615 M49  0.1+  0.2+    230716 H21  0.2+  0.0     230821 196  0.2-  0.1-
230615 M49  0.1-  0.1-    230716 H21  0.1+  0.5+    230821 K74  0.2-  0.1-
230615 807  0.1+  0.1-    230716 H21  0.0   0.4+    230821 K74  0.1+  0.3-
230615 807  0.2+  0.1-    230717 118  0.2+  0.0     230821 K74  0.2+  0.1-
230615 807  0.0   0.4+    230717 118  0.1+  0.4-    230822 K74  0.0   0.4-
230615 H01  0.0   0.0     230717 118  0.2+  0.1+    230822 K74  0.1+  0.1+
230615 H01  0.0   0.1-    230717 C95  0.0   0.1-    230822 K74  0.1+  0.0
230615 H01  0.0   0.1+    230717 C95  0.1-  0.0     230822 K74  0.3-  0.1-
230615 H01  0.1-  0.1+    230717 C95  0.0   0.0     230823 T05  0.1-  0.0
230615 654  0.1-  0.0     230717 M22  0.3-  0.2-    230823 T05  0.1-  0.2+
230615 654  0.0   0.1-    230717 M22  0.4-  0.1-    230823 T05  0.6+  0.0
230615 I52  0.1-  0.2-    230717 M22  0.1-  0.1-    230823 T05  0.3-  0.1+
230615 I52 (0.7+  0.8-)   230718 M22  0.2-  0.2-    230823 K74  0.3+  0.1-
230615 I52  0.0   0.0     230718 H21  0.3+  0.0     230823 K74  0.2-  0.4-
230615 654  0.1+  0.1-    230718 H21  0.4+  0.3+    230823 K74  0.1+  0.1-
230615 654  0.0   0.1+    230718 H21  0.6+  0.1+    230823 B72  0.3-  0.1+
230615 291  0.1+  0.0     230718 H21  0.3+  0.2+    230823 B72  0.2+  0.3-
230615 291  0.2-  0.2-    230718 H21  0.2+  0.3+    230823 B72  0.4-  0.1+
230615 291  0.1-  0.1+    230720 C95  0.1-  0.2+    230825 M45  0.0   0.1-
230615 474  0.0   0.1-    230720 C95  0.1-  0.3+    230825 M45  0.0   0.0
230615 474  0.0   0.1+    230720 C95  0.0   0.4+    230825 M45  0.0   0.1-
230615 474  0.0   0.1-    230722 B72  0.0   0.1-    230827 M45  0.1-  0.0
230615 474  0.1-  0.0     230722 B72  0.0   0.1-    230827 M45  0.0   0.0
230616 W94  0.3-  0.6+    230722 B72  0.0   0.1+    230827 M45  0.3+  0.1+
230616 W94  0.4-  0.7+    230724 C95  0.0   0.3-    230903 H21  0.1-  0.3+
230616 W94  1.1+  1.6+    230724 C95  0.1+  0.5-    230903 H21  0.5-  0.6+
230616 858  0.3-  0.2+    230724 C95  0.1-  0.5-    230903 H21  0.2-  0.3+
230616 858  0.2-  0.1+    230725 M45  0.2-  0.2+    230903 H21  0.2-  0.0
230616 858  0.4+  0.1-    230725 M45  0.1-  0.2-    230904 H21  0.1-  0.4+
230616 F52  0.0   0.1+    230726 X06  0.0   0.0     230904 H21  0.1-  0.5+
230616 F52  0.1-  0.1+    230726 X06  0.1+  0.2-    230904 H21  0.1-  0.7+
230616 F52  0.1-  0.0     230726 X06  0.0   0.1+    230904 H21  0.0   0.7+
230616 E23  0.1+  0.5+    230726 X06  0.1-  0.1+    230907 F52  0.0   0.0
230616 E23  0.2-  0.3+    230726 X06  0.2-  0.0     230907 F52  0.0   0.0
230616 E23  0.5-  0.3+    230726 X06  0.1+  0.1-    230907 F52  0.1+  0.0
230619 T12  0.0   0.0     230727 F52  0.0   0.0     230907 F52  0.0   0.0
230619 T12  0.1-  0.1+    230727 F52  0.0   0.0     230911 F51  0.1+  0.0
230619 T12  0.1-  0.1+    230727 F52  0.0   0.0     230911 F51  0.1+  0.1-
230619 T12  0.1-  0.0     230728 H21  0.1-  0.3+    230911 F51  0.1+  0.0
230621 U52  0.7+  1.2-    230728 H21  0.0   0.4+    230911 F51  0.1+  0.0
230621 U52  1.5+  0.7-    230728 H21  0.0   0.2+    230916 G96  0.0   0.0
230621 F51  0.1-  0.0     230805 T05  0.2+  0.1+    230916 G96  0.2+  0.2-
230621 F51  0.1-  0.0     230805 T05  0.0   0.1-    230916 G96  0.0   0.0
230621 F51  0.0   0.0     230805 T05  0.3+  0.2+    230916 G96  0.1+  0.1-
230622 M21  0.1+  0.1-    230805 T05  0.3-  0.1-    230919 703  1.9+  0.7+
230622 M21  0.0   0.1+    230806 M45  0.3-  0.1-    230919 703  0.3+  0.4+
230622 M21  0.1+  0.3-    230806 M45  0.0   0.0     230919 703  0.3-  0.1+
230625 807  0.1+  0.2+    230806 M45  0.3-  0.1-    230919 703  0.3+  0.6-
230625 807  0.1+  0.1+    230807 U52  0.2+  0.3+    230919 F52  0.0   0.0
230625 807  0.0   0.1-    230807 U52  0.4-  0.0     230919 F52  0.0   0.0
230627 T12  0.0   0.0     230808 L65  0.2+  0.3+    230919 F52  0.0   0.0
230627 T12  0.0   0.0     230808 L65  0.4+  0.5-    230919 F52  0.0   0.0
230627 T12  0.0   0.0     230808 U52  0.5+  0.1-    231005 G96  0.1-  0.2-
230629 807  0.3-  0.3-    230808 U52  0.2-  0.3+    231005 G96  0.4-  0.0
230629 807  0.6+  0.5-    230809 M45  0.3+  0.1+    231005 G96  0.7-  0.4-
230629 807  0.1+  0.2-    230809 M45  0.1+  0.2+    231005 G96  0.5-  0.1+
230629 U52  0.1-  0.2-    230809 M45  0.0   0.2+    231010 F51  0.1+  0.0
230629 U52  0.1+  0.0     230809 U52  0.1+  0.4-    231010 F51  0.0   0.1+
230701 M49  0.1-  0.1-    230809 U52  0.7+  0.4+    231010 F51  0.1+  0.0
230701 M49  0.3-  0.1+    230809 K74  0.1-  0.3-    231010 F51  0.2+  0.0
230701 M49  0.1-  0.2-    230809 K74  0.1+  0.1+    231012 G96  0.0   0.1+
230709 K74  0.2-  0.1-    230809 K74  0.3+  0.0     231012 G96  0.0   0.2-
230709 K74  0.2-  0.1-    230811 U52  0.2+  0.2+    231012 G96  0.0   0.3-
230709 K74  0.0   0.2-    230811 U52  0.2+  0.6+    231012 G96  0.4-  0.1+
230709 H21  0.1+  0.0     230811 K87  0.1+  0.2+
230709 H21  0.2-  0.0     230811 K87  0.1-  0.3-

Ephemeris:
2023 LS1                 a,e,i = 1.74, 0.34, 6                   q = 1.1519
Date    TT    R. A. (2000) Decl.     Delta      r    Elong.  Phase     V
2023 11 20    23 29 15.8 +08 19 47   0.8711  1.6004   118.7    32.8    22.9
...
2023 12 05    23 53 29.0 +08 53 24   1.0574  1.6698   109.6    33.8    23.5
...
2023 12 13    00 07 01.1 +09 25 30   1.1634  1.7061   104.9    33.9    23.7
...
2023 12 19    00 17 24.1 +09 54 51   1.2455  1.7329   101.4    33.8    23.9
2023 12 20    00 19 09.0 +10 00 08   1.2594  1.7373   100.8    33.8    23.9
2023 12 21    00 20 54.1 +10 05 31   1.2733  1.7418   100.2    33.8    24.0
...
2023 12 27    00 31 30.0 +10 39 47   1.3577  1.7681    96.8    33.5    24.1
...
2024 01 04    00 45 50.0 +11 29 52   1.4725  1.8024    92.3    33.0    24.3
...
2024 01 19    01 13 17.1 +13 13 36   1.6922  1.8646    83.9    31.6    24.7

A. U. Tomatic                (C) Copyright 2023 MPC           M.P.E.C. 2023-Y66





More information about the Iaude mailing list